Location: Newark
(41.0400°S, 62.7845°W)
Time: 07:29:47
(UTC+00:00)

Transit 2A - Pass Details

Date: 08 December 2021
Orbit: 591 x 967 km, 66.7° (Epoch: 19 January)

Event Time Altitude Azimuth Distance (km) Brightness Sun altitude
Rises 01:00:09 0° 220° (SW) 2,870 11.0 -13.4°
Reaches altitude 10° 01:02:32 10° 230° (SW) 1,975 9.6 -13.7°
Maximum altitude 01:06:28 32° 292° (WNW) 1,085 7.0 -14.2°
Enters shadow 01:10:12 12° 353° (N) 1,941 7.7 -14.7°
Drops below altitude 10° 01:10:34 10° 355° (N) 2,069 - -14.7°
Sets 01:13:08 0° 5° (N) 3,028 - -15.1°
